Weather History for KHBG - January, 2014

Change the Weather History Date:

Tuesday, January 21, 2014

  Actual Average Record
Temperature  
Mean Temperature 44 °F 48 °F  
Max Temperature 58 °F 60 °F 81 °F (2012)
Min Temperature 30 °F 37 °F 4 °F (1985)
Degree Days  
Heating Degree Days 21 17  
Month to date heating degree days 445 350  
Since 1 July heating degree days 1266 1135  
Cooling Degree Days 0 0  
Month to date cooling degree days 0 0  
Year to date cooling degree days 0 0  
Moisture  
Dew Point 32 °F    
Average Humidity 59    
Maximum Humidity 93    
Minimum Humidity 24    
Precipitation  
Precipitation 0.00 in 0.19 in 6.14 in (1993)
Month to date precipitation 2.30 3.76  
Year to date precipitation 2.30 3.76  
Sea Level Pressure  
Sea Level Pressure 30.06 in    
Wind  
Wind Speed 13 mph (NW)    
Max Wind Speed 28 mph    
Max Gust Speed 36 mph    
Visibility 10 miles    
Events      
T = Trace of Precipitation, MM = Missing Value Source: NWS Daily Summary

Daily Weather History Graph

Daily Weather History Graph

Search for Another Location

Airport or City:

Trip Planner

Search our weather history database for the weather conditions in past years. The results will help you decide how hot, cold, wet, or windy it might be!

Date:

Astronomy

Jan. 21, 2014 Rise Set
Actual Time 6:54 AM CST 5:22 PM CST
Civil Twilight 6:28 AM CST 5:48 PM CST
Nautical Twilight 5:59 AM CST 6:17 PM CST
Astronomical Twilight 5:30 AM CST 6:46 PM CST
Moon 10:30 PM CST (1/21) 9:46 AM CST (1/21)
Length of Visible Light 11h 19m
Length of Day
10h 27m
Waning Gibbous, 74% of the Moon is Illuminated
Jan 21
Waning Gibbous
Jan 23
Last Quarter
Jan 30
New
Feb 6
First Quarter
Feb 14
Full

Hourly Weather History & Observations

Time (CST) Temp. Windchill Dew Point Humidity Pressure Visibility Wind Dir Wind Speed Gust Speed Precip Events Conditions
12:53 AM 46.0 °F 44.8 °F 42.1 °F 86% 29.95 in 10.0 mi SE 3.5 mph - N/A   Scattered Clouds
1:53 AM 50.0 °F - 46.0 °F 86% 29.94 in 9.0 mi WSW 5.8 mph - N/A   Scattered Clouds
2:28 AM 57.9 °F - 54.0 °F 87% 29.93 in 10.0 mi WSW 12.7 mph 20.7 mph N/A   Mostly Cloudy
2:53 AM 57.9 °F - 55.0 °F 90% 29.92 in 10.0 mi WSW 12.7 mph - N/A   Overcast
3:53 AM 57.9 °F - 55.0 °F 90% 29.93 in 9.0 mi West 10.4 mph - N/A   Overcast
4:08 AM 57.9 °F - 54.0 °F 87% 29.94 in 9.0 mi West 11.5 mph 17.3 mph N/A   Overcast
4:22 AM 57.9 °F - 54.0 °F 87% 29.94 in 10.0 mi WNW 13.8 mph 20.7 mph N/A   Mostly Cloudy
4:34 AM 57.9 °F - 53.1 °F 84% 29.94 in 10.0 mi WNW 13.8 mph - N/A   Mostly Cloudy
4:42 AM 57.0 °F - 52.0 °F 83% 29.95 in 10.0 mi NW 13.8 mph 21.9 mph N/A   Mostly Cloudy
4:53 AM 55.9 °F - 51.1 °F 84% 29.95 in 10.0 mi NW 12.7 mph - N/A   Partly Cloudy
5:53 AM 53.1 °F - 37.9 °F 57% 30.00 in 10.0 mi NNW 17.3 mph 25.3 mph N/A   Clear
6:53 AM 50.0 °F - 30.9 °F 48% 30.04 in 10.0 mi NNW 11.5 mph - N/A   Clear
7:53 AM 50.0 °F - 28.9 °F 44% 30.07 in 10.0 mi NNW 13.8 mph 21.9 mph N/A   Clear
8:53 AM 51.1 °F - 28.9 °F 43% 30.09 in 10.0 mi NW 13.8 mph 25.3 mph N/A   Clear
9:53 AM 53.1 °F - 24.1 °F 32% 30.11 in 10.0 mi NNW 19.6 mph 27.6 mph N/A   Clear
10:53 AM 55.0 °F - 21.9 °F 28% 30.11 in 10.0 mi NW 21.9 mph 27.6 mph N/A   Clear
11:53 AM 55.9 °F - 21.0 °F 26% 30.08 in 10.0 mi NW 13.8 mph 31.1 mph N/A   Clear
12:53 PM 55.0 °F - 19.9 °F 25% 30.06 in 10.0 mi North 18.4 mph 28.8 mph N/A   Clear
1:53 PM 54.0 °F - 21.0 °F 28% 30.05 in 10.0 mi NNW 16.1 mph 26.5 mph N/A   Clear
2:53 PM 52.0 °F - 19.9 °F 28% 30.07 in 10.0 mi NNW 21.9 mph 28.8 mph N/A   Clear
3:53 PM 48.9 °F - 18.0 °F 29% 30.11 in 10.0 mi NNW 16.1 mph 27.6 mph N/A   Clear
4:53 PM 45.0 °F 38.9 °F 17.1 °F 33% 30.14 in 10.0 mi NNW 12.7 mph 19.6 mph N/A   Clear
5:53 PM 41.0 °F 32.8 °F 16.0 °F 36% 30.17 in 10.0 mi NNW 16.1 mph 25.3 mph N/A   Clear
6:53 PM 39.0 °F 31.4 °F 17.1 °F 41% 30.20 in 10.0 mi NNW 12.7 mph 26.5 mph N/A   Clear
7:53 PM 36.0 °F 28.5 °F 15.1 °F 43% 30.21 in 10.0 mi NNW 10.4 mph - N/A   Clear
8:53 PM 34.0 °F 26.0 °F 16.0 °F 48% 30.22 in 10.0 mi NNW 10.4 mph - N/A   Clear
9:53 PM 32.0 °F 24.8 °F 17.1 °F 54% 30.23 in 10.0 mi NNW 8.1 mph - N/A   Clear
10:53 PM 30.0 °F 23.2 °F 17.1 °F 59% 30.24 in 10.0 mi NW 6.9 mph - N/A   Clear
11:53 PM 30.0 °F 23.2 °F 17.1 °F 59% 30.25 in 10.0 mi NNW 6.9 mph - N/A   Clear